Location: Maiden
(35.5760°N, 81.2120°W)
Time: 16:17:09
(UTC-04:00)

Daily predictions for brighter satellites

Satellite Brightness Start Highest point End
(mag) Time Altitude Azimuth Time Altitude Azimuth Time Altitude Azimuth
USA 238 4.5 20:45:25 10° NW 20:52:41 61° WSW 21:00:12 10° SSE
Cosmos 405 Rocket 4.3 20:50:40 10° SSW 20:54:23 42° WNW 20:58:12 10° N
Resurs 01 Rocket 3.6 20:52:48 10° E 20:54:47 13° ENE 20:56:47 10° NE
CSL-04 Debris 4.3 20:49:35 10° SSE 20:55:03 87° WSW 21:00:35 10° NNW
COSMOS 2406 3.5 20:50:22 10° SSW 20:56:02 77° WNW 21:01:44 10° NNE
Cosmos 1437 3.5 20:55:39 10° NNE 20:58:04 26° ENE 21:00:26 10° SE
Cosmos 44 Rocket 4.1 20:53:59 10° SW 20:59:05 63° WNW 21:04:18 10° NNE
USA 32 4.1 20:56:56 10° N 21:02:10 67° E 21:07:22 10° SSE
Cosmos 2098 Rocket 4.1 21:03:33 10° ESE 21:05:19 15° E 21:07:12 10° NE
CSL-04 Rocket 4.1 21:05:44 10° S 21:11:09 68° WSW 21:16:31 10° NNW
MetOp-A 4.4 21:06:29 10° S 21:11:50 75° WSW 21:17:12 10° NNW
SEDSat Delta rocket 3.2 21:09:25 10° WSW 21:13:24 47° S 21:16:59 12° ESE
Cosmos 1634 Rocket 4.1 21:07:30 10° N 21:13:47 84° W 21:19:58 10° S
Cosmos 1869 4.3 21:12:15 10° NNW 21:15:58 47° W 21:19:39 10° SSW
Ariane Rocket 3.6 21:11:59 10° SE 21:16:39 38° ENE 21:21:19 10° N
OBJECT-B 0.8 21:14:12 10° S 21:17:23 84° WSW 21:20:36 10° NNW
Helios 1A Rocket 2.8 21:17:41 10° SSE 21:21:43 80° ENE 21:25:47 10° N
Cosmos 1437 Rocket 3.7 21:19:27 10° NNW 21:23:13 50° W 21:27:03 10° S
Cosmos 1076 Rocket 4.0 21:21:15 10° SSE 21:25:18 41° E 21:29:23 10° NNE
SAR-Lupe-1 4.2 21:22:07 10° N 21:25:41 77° WNW 21:29:14 10° SSW
SAR-Lupe-4 3.5 21:23:18 10° NNE 21:26:55 87° W 21:30:28 10° SSW
SL-16 R/B 4.2 21:28:15 10° NNE 21:30:25 12° NE 21:32:33 10° ENE
SJ-6B 3.0 21:28:47 10° S 21:32:28 66° W 21:36:11 10° NNW
OAO 2 Rocket 3.9 21:28:15 10° W 21:33:05 43° SSW 21:36:33 17° SE
Cosmos 2360 4.2 21:29:33 10° NNW 21:35:17 84° ENE 21:40:27 13° SSE
Cosmos 1633 2.5 21:32:53 10° S 21:36:25 61° E 21:39:59 10° NNE
Resurs 1-3 3.5 21:40:52 12° SSE 21:44:53 86° E 21:49:17 10° N
Atlas Centaur 2 1.9 21:40:53 10° WSW 21:45:06 40° S 21:46:49 25° SE
Cosmos 1697 Rocket 3.0 21:41:23 10° NNW 21:47:01 67° WSW 21:52:19 11° S
Cosmos 1842 Rocket 3.5 21:42:38 10° N 21:47:09 87° E 21:51:04 13° S
OAO 1 Rocket 4.4 21:42:31 10° W 21:47:53 81° S 21:51:33 21° ESE
Cosmos 1242 Rocket 4.4 21:48:57 10° NNW 21:52:05 29° W 21:55:09 10° SSW
ISS -1.4 21:50:54 10° NNW 21:53:06 16° NNE 21:54:48 12° ENE
Cosmos 1606 2.5 21:49:55 10° N 21:53:42 81° E 21:56:00 23° S
Cosmos 2082 Rocket 3.5 21:52:28 10° SW 21:57:45 43° WNW 22:03:07 10° N
IRIS 3.9 21:55:21 10° WNW 21:57:53 85° SSW 21:58:45 44° ESE
Cosmos 158 Rocket 3.9 21:58:03 10° SSW 22:03:07 83° ESE 22:08:23 10° NNE
IGS 5A 3.3 22:01:36 28° SSE 22:03:45 78° ENE 22:07:54 10° N
ERBS 2.8 22:01:02 10° NW 22:04:10 48° SW 22:05:02 36° S
Meteor 2-19 Rocket 4.4 21:59:30 12° S 22:05:06 66° E 22:11:06 10° NNE
Cosmos 1092 Rocket 4.1 22:02:01 17° SSE 22:06:43 58° E 22:12:53 10° NNE
Cosmos 2278 3.7 22:01:48 10° NNW 22:07:28 72° ENE 22:10:23 30° SSE
GP-B 4.0 22:04:28 10° NNE 22:08:20 29° E 22:08:34 29° E
Landsat 7 3.7 22:07:33 28° SSE 22:10:03 79° ENE 22:14:49 10° N
Cosmos 2360 Rocket 4.3 22:11:26 10° NNE 22:13:29 12° NE 22:15:23 10° ENE
ATLAS 3B R/B 2.9 22:07:23 10° NNW 22:14:33 69° ENE 22:18:28 30° SE
Hubble Space Telescope 2.3 22:12:05 10° WSW 22:15:07 21° SSW 22:15:07 21° SSW
Centaur D AC-29 3.9 22:01:06 10° W 22:15:54 23° SW 22:20:02 13° S
Spot 2 Rocket 4.3 22:15:22 31° ESE 22:16:41 36° ENE 22:21:18 10° N
USA 245 4.2 22:16:44 36° ESE 22:18:20 48° ENE 22:22:40 10° N
SPOT 3 Rocket 3.5 22:16:05 31° SSE 22:18:41 82° ENE 22:23:56 10° N
Cosmos 2026 Rocket 4.1 22:15:48 26° SSE 22:19:24 58° E 22:25:33 10° NNE
Cosmos 2112 Rocket 4.4 22:18:34 37° SE 22:19:33 41° ESE 22:24:29 10° NNE
Cosmos 1680 Rocket 3.7 22:18:06 34° SSE 22:19:57 49° ESE 22:25:01 10° NNE
Cosmos 2221 4.1 22:16:11 10° NNW 22:20:03 33° W 22:23:54 10° SSW
USA 267 3.8 22:14:34 10° ENE 22:20:16 32° SE 22:20:21 32° SE
CZ-2C R/B 3.5 22:18:30 10° NNE 22:23:02 80° ESE 22:25:01 33° S
ERS-2 4.4 22:23:17 10° NNW 22:26:17 24° WNW 22:29:16 10° SW
Cosmos 1933 3.2 22:23:35 10° N 22:27:36 63° E 22:27:50 61° ESE
MetOp-B 4.0 22:25:35 36° SSE 22:27:53 85° ENE 22:33:17 10° NNW
Cosmos 2151 3.5 22:26:26 19° SSW 22:29:17 57° W 22:33:29 10° N
Meteor 1-26 Rocket 4.4 22:23:39 10° N 22:29:27 55° ENE 22:31:04 42° SE
Resurs 01 Rocket 2.3 22:28:39 27° SSW 22:30:47 51° W 22:35:08 10° NNW
OAO 3 Copernicus 4.3 22:25:56 10° W 22:30:55 64° SSW 22:31:52 52° SE
Cosmos 1980 Rocket 2.8 22:29:58 10° NNW 22:35:24 50° WSW 22:38:12 27° SSW
Cosmos 1627 Rocket 4.4 22:31:37 25° S 22:35:30 83° E 22:41:49 10° N
JB-3 4.4 22:32:18 10° N 22:36:26 81° W 22:37:21 52° SSW
Cosmos 2084 3.7 22:37:57 49° NE 22:37:57 49° NE 22:41:05 10° NE
Cosmos 304 Rocket 3.7 22:32:29 10° NNW 22:37:16 66° ENE 22:37:53 59° ESE
CARTOSAT-1 3.7 22:37:56 55° E 22:38:02 55° ENE 22:42:16 10° N
Cosmos 2322 Rocket 2.9 22:41:18 10° N 22:46:30 37° ENE 22:47:12 36° E
Cosmos 1428 Rocket 4.5 22:45:10 27° SSW 22:48:41 79° W 22:54:48 10° N
Cosmos 1782 3.2 22:49:06 10° N 22:52:25 57° NNE 22:52:25 57° NNE
ARIANE 5 R/B 2.6 22:57:03 73° NE 22:57:03 73° NE 23:01:17 10° N
Meteor 2-14 Rocket 4.4 22:56:04 57° SE 22:56:59 64° E 23:03:03 10° NNE
Cosmos 1271 Rocket 3.1 22:53:49 10° NNW 22:57:26 64° WNW 22:57:26 64° WNW
Gbstr 26 Del rocket 4.2 22:59:48 10° NNW 23:02:57 31° NNE 23:02:57 31° NNE
Cosmos 2292 Rocket 4.5 23:04:23 53° S 23:05:58 88° W 23:13:25 10° N
Cosmos 1766 Rocket 3.8 23:06:10 68° WNW 23:06:10 68° WNW 23:10:23 10° N
Centaur AC-125 4.4 22:46:12 10° WSW 23:06:56 44° S 23:07:26 43° S
Cosmos 2219 Rocket 4.3 23:04:55 10° NNE 23:07:19 13° NE 23:08:04 12° ENE
Cosmos 1553 Rocket 3.9 23:03:07 10° N 23:09:09 65° E 23:09:33 63° ESE
Cosmos 1151 Rocket 3.4 23:07:26 10° N 23:11:03 60° NNW 23:11:03 60° NNW
SL-16 R/B 2.0 23:09:36 10° NNW 23:15:18 89° ENE 23:15:30 84° SSE
COSMOS 2455 3.9 23:18:25 31° ENE 23:18:25 31° ENE 23:21:53 10° NE
Cosmos 1328 Rocket 4.2 23:12:29 10° N 23:15:52 51° N 23:15:52 51° N
Cosmos 2237 4.5 23:14:18 10° NNW 23:19:45 54° ENE 23:19:45 54° ENE
Terra 2.2 23:23:29 60° N 23:23:29 60° N 23:27:25 10° N
Meteor 2-6 Rocket 4.2 23:20:40 10° N 23:25:31 69° NNE 23:25:31 69° NNE
SPOT 5 3.4 23:27:42 48° NW 23:27:42 48° NW 23:31:04 10° NNW
Cosmos 1655 Rocket 3.9 23:27:29 70° E 23:27:29 70° E 23:33:46 10° NNE
ISS -0.9 23:26:52 10° NW 23:27:45 17° WNW 23:27:45 17° WNW
Cosmos 1417 Rocket 4.3 23:30:09 10° N 23:36:29 89° ENE 23:36:33 88° SSE
S3M 4.0 23:33:14 10° N 23:39:30 76° ENE 23:39:30 76° ENE
ERS-1 Rocket 3.7 23:40:34 46° W 23:40:34 46° W 23:44:59 10° NNW
Cosmos 2056 Rocket 3.9 23:39:07 10° NNW 23:43:27 60° NNW 23:43:27 60° NNW
Meteor 1-27 Rocket 4.4 23:47:05 10° N 23:51:29 48° NE 23:51:29 48° NE
